Total_Precipitation_Accumulation
1.97 2.28 2.97 2.72 2.23 2.15 2.08 1.89 1.78 1.62 1.65 1.67 1.68 1.57 1.52 1.60 1.70 1.87 2.05 2.19 2.25 2.20 2.09 2.21 2.25 2.26 2.11 1.94 1.84 1.68 1.58 1.41 1.41 1.42 1.41 1.41 1.43 1.59 1.85 1.92 2.01 1.40 1.34
1.42 1.76 2.45 2.42 2.07 1.96 1.90 1.77 1.70 1.69 1.71 1.65 1.72 1.69 1.73 1.77 1.72 1.82 2.09 2.18 2.09 1.98 1.92 1.98 1.97 1.89 1.74 1.64 1.58 1.49 1.49 1.49 1.52 1.73 1.78 1.60 1.53 1.66 1.84 1.86 2.00 1.36 1.27
1.11 1.34 1.66 1.94 1.76 1.64 1.66 1.62 1.63 1.69 1.65 1.64 1.68 1.75 1.79 1.87 1.90 2.02 2.05 1.89 1.83 1.82 1.78 1.84 1.80 1.59 1.45 1.34 1.31 1.35 1.51 1.67 1.88 2.14 2.44 1.66 1.27 1.63 1.63 1.59 1.45 1.26 1.20
1.00 1.11 1.30 1.67 1.64 1.51 1.58 1.59 1.69 1.67 1.58 1.56 1.64 1.71 1.82 2.02 2.05 1.98 1.81 1.71 1.74 1.69 1.66 1.63 1.61 1.41 1.28 1.18 1.20 1.38 1.64 1.74 1.95 2.34 2.29 1.47 1.03 1.20 1.31 1.32 1.21 1.21 1.10
1.08 1.20 1.45 1.68 1.67 1.63 1.66 1.73 1.71 1.60 1.55 1.61 1.75 1.90 2.06 2.08 1.94 1.79 1.71 1.61 1.55 1.47 1.45 1.37 1.42 1.32 1.18 1.13 1.21 1.41 1.64 1.79 2.13 2.07 1.41 1.34 1.28 1.23 1.14 1.19 1.20 1.12 0.99
1.22 1.31 1.44 1.62 1.65 1.62 1.55 1.59 1.69 1.71 1.66 1.72 1.76 1.86 1.93 1.90 1.79 1.61 1.47 1.39 1.35 1.28 1.20 1.18 1.28 1.33 1.24 1.20 1.22 1.33 1.64 1.88 1.92 1.35 1.07 1.01 1.04 1.19 1.11 1.28 1.33 1.17 0.99
1.17 1.29 1.33 1.54 1.68 1.68 1.62 1.64 1.68 1.72 1.70 1.68 1.67 1.70 1.71 1.71 1.65 1.48 1.31 1.23 1.19 1.08 1.00 1.09 1.20 1.27 1.19 1.15 1.15 1.28 1.62 1.94 1.49 1.09 1.06 1.07 1.01 1.03 1.19 1.41 1.59 1.41 1.17
1.16 1.26 1.37 1.63 1.73 1.76 1.68 1.70 1.64 1.65 1.67 1.59 1.56 1.60 1.56 1.47 1.43 1.35 1.26 1.14 1.08 0.99 0.97 1.06 1.10 1.14 1.12 1.13 1.19 1.30 1.53 1.57 1.04 0.96 0.91 0.90 0.80 0.90 1.21 1.41 1.60 1.56 1.46
1.28 1.31 1.49 1.72 1.70 1.65 1.77 1.70 1.67 1.63 1.61 1.56 1.52 1.53 1.44 1.30 1.25 1.23 1.28 1.22 1.05 0.98 0.98 1.01 1.02 1.01 1.04 1.13 1.19 1.28 1.39 1.45 1.16 1.04 0.87 0.86 0.84 1.10 1.55 1.64 1.59 1.57 1.57
1.64 1.51 1.59 1.71 1.58 1.45 1.46 1.50 1.47 1.42 1.37 1.39 1.37 1.34 1.36 1.35 1.27 1.29 1.28 1.25 1.14 1.09 1.16 1.12 1.10 1.06 1.02 1.03 1.14 1.27 1.33 1.27 1.22 1.06 0.94 0.84 0.96 1.29 1.69 1.81 1.79 1.78 1.69
1.88 1.77 1.62 1.53 1.43 1.35 1.22 1.22 1.40 1.46 1.42 1.40 1.35 1.28 1.36 1.49 1.30 1.38 1.32 1.48 1.49 1.40 1.47 1.50 1.48 1.38 1.26 1.13 1.30 1.43 1.29 1.25 1.30 1.18 1.00 0.86 1.08 1.43 1.74 1.84 1.83 1.81 1.73
2.10 1.87 1.74 1.62 1.40 1.20 1.08 1.24 1.56 1.37 1.41 1.48 1.53 1.46 1.67 1.89 1.87 1.31 1.46 1.80 1.93 1.97 1.99 2.04 2.07 1.78 1.50 1.41 1.88 2.04 1.39 1.33 1.43 1.36 1.20 1.13 1.40 1.69 1.95 1.90 1.81 1.85 1.76
2.40 2.16 2.01 1.80 1.52 1.28 1.38 1.25 1.40 1.58 1.69 1.68 1.62 1.62 1.82 1.69 1.50 1.38 1.58 1.88 2.16 2.19 2.16 2.38 2.41 2.06 2.12 2.40 2.36 2.13 1.62 1.75 1.80 1.72 1.63 1.69 1.84 2.12 2.51 2.31 1.98 1.93 1.89
2.57 2.45 2.43 2.05 1.88 1.88 1.67 1.39 1.28 1.30 1.44 1.64 1.89 1.81 1.91 2.15 2.06 2.00 2.15 2.19 2.30 2.51 2.91 2.76 2.89 2.76 2.75 2.67 2.56 2.38 2.13 2.22 2.15 2.25 2.16 1.93 2.01 2.34 2.87 2.88 2.45 2.14 1.99
2.56 2.59 2.58 2.39 2.21 2.28 2.06 1.82 1.56 1.69 1.68 1.75 1.93 2.04 1.97 2.27 2.50 2.52 2.52 2.47 2.33 2.39 2.65 2.84 2.82 3.17 3.35 2.98 2.60 2.41 2.42 2.51 2.40 2.37 2.24 2.09 2.04 2.26 2.72 2.98 2.88 2.67 2.41
2.82 2.87 2.65 2.59 2.58 2.59 2.51 2.43 2.33 2.06 2.15 2.06 2.04 2.03 2.06 2.33 2.69 2.85 2.78 2.69 2.50 2.47 2.64 2.83 3.00 3.48 3.46 3.30 2.89 2.63 2.53 2.49 2.31 2.24 2.33 2.47 2.30 2.22 2.38 2.76 3.11 3.08 2.93
3.17 3.21 3.18 3.12 3.26 3.22 3.06 2.95 2.71 2.48 2.33 2.31 2.39 2.40 2.30 2.41 2.73 2.74 2.61 2.51 2.54 2.65 2.84 2.88 3.10 3.33 3.05 3.07 2.90 2.69 2.49 2.28 2.12 2.10 2.26 2.43 2.30 2.24 2.40 2.65 2.96 3.08 3.24
3.35 3.52 3.69 3.65 3.67 3.51 3.53 3.51 3.23 2.98 2.80 2.63 2.57 2.61 2.45 2.45 2.57 2.81 2.59 2.44 2.75 2.75 2.91 3.22 3.38 3.32 3.28 3.31 3.07 2.68 2.44 2.34 2.00 1.89 1.86 2.03 2.27 2.06 2.38 2.64 2.73 2.87 3.25
3.72 3.99 4.21 4.20 4.06 3.81 3.87 3.85 3.68 3.54 3.22 2.85 2.68 2.60 2.47 2.45 2.59 2.91 2.91 2.98 3.00 3.10 3.15 3.00 3.44 3.51 3.40 3.43 3.00 2.77 2.44 2.17 1.97 1.78 1.70 1.69 1.92 2.14 2.27 2.34 2.45 2.61 3.12
4.19 4.59 4.46 4.37 4.57 4.48 4.35 4.22 3.93 3.47 3.04 2.90 2.86 2.68 2.54 2.60 2.71 3.13 3.00 2.97 3.03 3.20 3.27 3.24 3.43 3.47 3.21 3.18 2.87 2.78 2.39 1.92 1.82 1.77 1.60 1.60 1.71 1.74 2.06 2.38 2.61 2.36 2.70
4.25 4.63 4.79 4.81 4.74 4.58 4.24 3.95 3.71 3.47 3.25 2.99 2.80 2.71 2.61 2.52 2.73 3.18 3.00 3.24 3.18 3.18 3.19 3.24 3.39 3.31 3.03 3.22 3.31 2.89 2.31 1.88 1.86 1.64 1.59 1.63 1.69 1.68 2.03 2.44 2.70 2.64 2.37
3.89 4.34 4.64 4.80 4.69 4.32 3.98 3.82 3.72 3.69 3.29 2.99 2.95 3.07 2.89 2.90 2.94 2.98 3.16 3.12 3.17 3.29 3.23 3.22 3.37 3.17 2.82 3.08 3.44 3.51 2.83 2.41 1.96 1.48 1.59 1.70 1.84 1.94 2.04 2.17 2.38 2.63 2.62
3.45 3.74 3.84 4.02 3.97 3.82 3.88 3.92 3.87 3.90 3.48 3.38 3.38 3.38 3.17 3.16 3.17 3.17 3.13 3.03 3.04 2.85 2.93 3.01 3.03 3.05 2.97 2.91 3.24 3.58 3.16 2.66 2.31 1.74 1.61 1.63 1.87 2.16 2.20 2.22 2.26 2.50 2.64
2.99 3.31 3.53 3.59 3.55 3.48 3.60 3.67 3.57 3.40 3.26 3.41 3.69 3.63 3.33 3.11 2.98 2.80 2.73 2.88 2.91 2.69 2.72 2.40 2.55 2.74 2.76 2.61 2.88 2.97 3.01 2.99 2.90 2.23 1.79 1.62 1.77 1.98 2.17 2.11 2.14 2.40 2.68
2.59 2.87 3.11 3.37 3.48 3.43 3.51 3.48 3.51 3.36 3.36 3.42 3.40 3.42 3.21 3.02 2.70 2.37 2.38 2.57 2.54 2.45 2.37 2.26 2.42 2.32 2.29 2.36 2.58 2.77 2.85 2.93 2.82 2.65 2.23 2.16 2.09 1.95 1.93 2.00 2.22 2.37 2.60
2.26 2.38 2.52 2.72 2.99 3.17 3.24 3.22 3.26 3.21 3.19 3.14 3.06 2.94 2.73 2.58 2.37 2.09 1.99 2.16 2.27 2.29 2.26 2.25 2.32 2.23 2.28 2.42 2.42 2.47 2.70 2.73 2.69 2.85 2.46 2.31 2.28 2.02 1.98 2.11 2.15 2.36 2.48